Wetbulb
72.10 75.72 76.45 75.26 75.54 75.34 75.04 74.97 74.92 75.05 75.15 74.94 74.89 74.85 75.00 74.72 74.62 74.71 74.51 74.38 74.04 73.71 73.50 73.36 73.11 72.92 73.03 73.13 73.19 73.24 73.37 73.54 73.66 72.97 72.28 72.97 71.65 70.99 71.08 70.72 69.60 70.54 70.16
72.98 75.75 76.73 75.52 75.49 75.31 75.04 74.74 74.82 74.82 74.70 74.57 74.62 74.49 74.37 74.27 74.32 74.26 74.11 74.08 73.82 73.92 73.71 73.70 73.65 73.65 73.65 73.56 73.63 73.55 73.65 73.73 73.83 73.76 73.22 71.56 71.92 71.03 70.76 70.37 69.78 71.08 70.21
74.10 76.07 75.60 75.88 75.24 75.22 74.92 74.62 74.55 74.65 74.65 74.39 74.27 74.47 74.32 74.37 74.24 74.29 74.10 74.19 74.10 74.33 74.37 74.32 74.30 74.15 74.03 74.01 73.86 73.76 73.62 73.69 73.76 73.80 72.59 74.40 73.91 71.50 71.05 70.63 70.40 70.38 70.06
75.09 76.17 75.82 76.05 75.65 75.32 74.92 74.77 74.42 74.42 74.34 74.27 74.04 74.04 73.99 73.81 73.66 73.56 73.66 73.81 73.74 73.93 74.12 74.24 74.27 74.13 74.16 74.14 74.32 74.27 74.37 74.05 73.89 73.80 72.56 73.10 73.63 71.70 72.24 71.80 71.58 71.15 70.66
74.88 75.76 76.17 75.85 75.65 75.22 74.77 74.42 74.30 74.24 73.97 73.76 73.58 73.43 73.45 73.63 73.61 73.34 73.34 73.55 73.43 73.70 73.71 73.86 74.03 74.02 73.93 73.76 73.70 73.54 73.62 73.69 73.58 73.46 71.90 72.19 73.10 72.66 73.14 72.71 72.16 71.74 71.37
74.49 75.45 75.77 75.73 75.32 75.09 74.64 74.26 74.04 73.51 73.48 73.40 73.47 73.60 73.78 73.83 73.71 73.89 73.99 74.14 74.18 74.20 74.12 74.01 74.05 74.08 73.95 73.72 73.78 73.51 73.22 73.16 73.01 72.84 72.91 72.86 72.98 72.17 72.85 73.60 72.95 72.24 71.92
73.91 74.74 75.26 75.53 75.12 74.72 74.50 73.90 73.51 73.41 73.23 73.38 73.25 73.54 73.61 73.83 74.16 74.24 74.32 74.32 74.07 74.01 74.47 74.34 74.27 74.49 74.37 74.45 74.12 73.80 73.65 73.24 73.14 72.98 73.10 73.51 73.42 71.99 72.32 74.39 73.85 73.18 72.62
72.87 74.07 74.80 75.15 75.15 74.92 74.49 74.16 73.84 73.62 73.72 73.64 73.28 73.08 73.74 74.30 74.82 74.65 74.65 74.69 73.82 74.33 74.48 74.30 74.26 74.27 74.02 74.43 74.55 73.60 73.18 73.18 73.15 72.95 73.20 73.66 73.21 70.51 72.38 74.13 75.02 74.35 73.44
72.33 72.64 73.82 73.64 74.34 74.65 74.80 74.55 74.17 74.05 73.57 73.42 73.54 73.87 74.50 74.50 73.37 73.16 73.29 73.67 73.69 73.60 73.70 72.71 72.32 71.18 72.21 73.28 73.63 73.70 72.85 72.34 72.36 73.27 73.04 73.54 71.07 70.93 72.41 72.54 74.49 74.87 74.48
71.45 71.59 72.28 73.53 73.28 73.75 73.67 74.72 74.60 73.77 73.53 73.84 74.07 74.23 73.75 70.02 70.87 71.60 71.52 72.10 71.80 72.70 72.33 71.32 70.25 70.49 70.88 72.34 72.14 71.57 70.46 69.13 70.27 70.96 71.89 72.45 70.78 71.57 72.25 73.55 74.92 75.25 74.98
70.52 71.86 72.20 72.23 72.75 72.95 72.29 72.30 73.53 73.28 73.67 73.70 73.15 72.46 71.65 69.47 69.04 68.83 70.24 70.59 70.48 72.15 70.84 70.07 69.09 69.00 68.24 69.11 69.38 68.73 68.03 68.30 68.89 70.28 70.72 69.25 69.73 70.56 71.51 71.75 72.58 74.92 75.32
69.30 70.30 71.13 71.37 71.50 71.60 71.20 72.11 73.21 73.23 74.68 75.02 73.94 72.67 70.00 69.01 69.05 67.39 66.46 65.93 66.71 69.02 67.41 66.98 67.02 67.32 67.35 64.77 64.45 66.58 65.89 66.43 65.71 66.94 68.14 68.54 69.33 70.04 70.70 71.27 71.65 72.49 73.73
69.90 69.84 70.55 70.71 71.37 71.62 72.01 73.89 73.88 73.91 74.33 74.74 71.64 69.94 68.66 67.84 68.24 67.83 66.99 66.36 65.90 65.38 65.20 64.99 66.36 66.05 65.16 64.97 64.76 65.91 65.72 65.08 64.07 64.14 66.59 67.97 68.65 68.25 69.48 70.50 71.04 71.68 72.66
69.91 70.11 70.63 71.52 71.84 72.31 72.81 73.40 74.38 74.05 74.10 72.41 68.95 68.65 68.52 67.69 67.88 67.32 66.62 66.23 65.35 65.02 64.93 64.78 63.97 65.32 65.05 65.02 64.72 64.20 63.76 63.49 62.61 62.74 64.94 66.73 67.50 66.04 66.54 69.07 70.34 70.56 72.08
70.85 71.11 71.77 72.03 71.64 70.51 70.15 71.08 70.94 70.20 70.80 68.24 67.94 67.24 67.56 67.41 66.78 66.60 66.36 65.87 65.48 65.28 64.93 64.42 64.00 63.55 63.58 63.42 63.34 63.18 62.87 63.15 63.59 63.46 63.92 65.60 64.85 64.57 65.35 66.47 68.53 69.86 70.99
70.23 69.67 69.74 70.72 68.33 67.38 67.38 67.40 67.11 67.19 67.12 67.35 67.15 66.48 66.49 66.21 66.33 65.62 65.29 65.06 64.91 64.69 64.70 64.10 63.85 63.27 63.01 63.01 62.80 63.13 63.01 63.30 63.12 63.32 62.81 63.24 63.87 63.19 64.00 65.00 66.25 67.72 69.79
69.01 68.48 66.92 67.06 67.42 67.19 66.65 66.34 67.30 66.93 66.54 66.29 65.82 65.53 65.37 65.07 64.55 64.02 62.24 61.69 61.40 61.70 62.15 62.93 63.58 63.73 63.26 62.95 62.06 61.84 61.87 62.25 62.51 62.71 62.62 62.97 63.36 65.00 63.41 64.21 65.67 67.07 68.15
68.12 68.12 67.86 66.92 66.42 66.65 66.21 67.18 67.33 66.25 66.17 65.70 65.07 64.61 62.63 63.36 62.84 62.50 60.55 60.64 61.21 60.86 60.41 60.16 60.24 60.74 61.64 61.76 61.29 61.53 61.47 61.88 61.47 61.37 61.20 61.58 61.57 61.76 63.66 65.05 65.06 66.50 68.77
68.05 67.82 67.91 68.42 66.00 65.75 67.41 67.21 65.98 63.54 63.80 66.00 62.98 63.45 63.19 62.08 61.02 61.51 60.53 60.49 61.08 59.74 59.38 59.01 58.78 59.26 58.78 59.49 59.93 60.57 60.91 60.88 60.43 59.42 59.70 60.23 60.93 61.48 61.64 63.81 64.67 67.78 67.25
66.78 67.41 68.05 67.91 66.79 67.12 66.79 64.67 64.18 65.01 66.11 65.11 64.28 63.51 62.14 62.55 61.04 61.08 60.53 60.40 59.92 58.37 57.93 57.81 57.74 58.42 58.55 58.70 58.12 58.01 59.31 59.73 59.23 58.54 58.68 58.54 60.11 61.10 62.06 63.25 64.78 65.68 65.77
66.37 66.68 67.60 66.96 67.08 67.20 65.92 65.16 65.43 65.16 65.47 63.85 62.89 62.26 62.01 61.69 60.79 61.20 59.67 59.28 58.93 57.42 57.29 57.46 57.20 57.39 57.41 59.46 57.82 57.36 58.01 58.80 58.00 57.73 58.54 58.76 60.54 61.33 64.58 65.08 64.11 64.81 64.74
65.06 66.25 66.24 66.85 67.10 67.24 67.40 66.09 66.46 65.92 63.93 62.90 63.10 62.54 61.76 61.17 60.61 60.18 59.60 58.30 58.27 56.59 56.71 56.61 56.64 56.02 56.08 57.61 54.78 55.00 51.91 54.07 55.74 57.90 58.30 58.02 59.97 60.65 63.43 63.99 64.74 65.73 66.40
65.19 65.53 66.48 67.14 67.79 68.02 67.03 65.94 65.03 62.71 61.96 61.72 61.28 61.20 61.72 60.55 60.20 59.94 59.12 58.29 58.01 57.20 55.24 55.65 55.77 56.04 53.94 55.90 57.37 53.65 50.15 48.78 51.88 55.82 56.44 58.62 57.28 60.87 62.30 63.18 63.37 63.82 64.85
65.53 65.37 66.77 67.66 67.62 66.90 64.66 64.09 62.20 60.42 59.13 60.37 59.75 60.13 60.56 60.13 58.85 58.68 58.39 58.19 57.60 56.66 55.66 54.64 54.30 54.43 54.69 51.85 53.81 54.91 55.46 53.24 48.34 48.97 54.78 56.28 56.69 57.36 59.56 59.92 61.13 62.99 64.04
65.34 65.44 66.73 66.97 65.59 64.65 63.26 62.29 61.67 61.24 60.75 59.93 59.10 59.34 59.28 58.79 58.79 58.02 57.62 56.67 55.91 55.14 54.85 54.93 53.96 54.02 54.24 52.39 52.52 51.40 52.63 52.38 52.06 49.51 48.95 51.86 57.18 56.25 57.69 57.85 59.28 60.57 61.76
65.69 65.46 66.18 66.09 65.58 63.52 62.36 61.88 61.56 60.57 59.35 58.44 58.76 57.45 57.08 57.18 56.78 56.06 55.63 55.69 55.31 54.27 53.82 53.71 54.28 54.10 53.43 52.09 51.85 51.53 50.80 50.28 50.49 49.83 49.88 50.84 51.44 54.65 57.13 58.26 59.04 60.68 61.99
MSLP
1018.02 1018.17 1018.90 1019.13 1019.24 1019.31 1019.26 1019.18 1019.20 1019.31 1019.37 1019.38 1019.37 1019.36 1019.41 1019.41 1019.39 1019.39 1019.35 1019.26 1019.15 1019.08 1019.10 1019.03 1018.95 1018.78 1018.58 1018.45 1018.35 1018.23 1017.99 1017.82 1017.74 1017.72 1017.65 1017.54 1017.47 1017.46 1017.43 1017.40 1017.42 1016.93 1017.56
1017.39 1018.13 1018.77 1019.04 1019.15 1019.19 1019.29 1019.32 1019.35 1019.42 1019.47 1019.53 1019.50 1019.49 1019.52 1019.49 1019.46 1019.48 1019.46 1019.45 1019.38 1019.23 1019.20 1019.15 1019.07 1019.00 1018.86 1018.70 1018.59 1018.46 1018.28 1018.06 1017.90 1017.73 1017.66 1017.54 1017.53 1017.55 1017.54 1017.58 1017.60 1017.36 1017.73
1017.42 1018.06 1018.53 1018.96 1019.08 1019.17 1019.32 1019.46 1019.50 1019.60 1019.67 1019.70 1019.67 1019.61 1019.66 1019.59 1019.53 1019.50 1019.49 1019.35 1019.36 1019.29 1019.23 1019.13 1019.05 1018.99 1018.89 1018.79 1018.71 1018.60 1018.45 1018.28 1018.05 1017.84 1017.70 1017.01 1016.97 1017.43 1017.53 1017.60 1017.72 1017.80 1017.84
1017.49 1017.91 1018.21 1018.77 1018.97 1019.20 1019.39 1019.48 1019.56 1019.69 1019.81 1019.83 1019.80 1019.75 1019.72 1019.68 1019.58 1019.50 1019.47 1019.39 1019.30 1019.17 1019.11 1019.08 1019.02 1018.93 1018.89 1018.73 1018.60 1018.55 1018.49 1018.38 1018.17 1017.94 1017.23 1017.12 1017.08 1017.38 1017.45 1017.51 1017.63 1017.76 1017.90
1017.66 1017.98 1018.45 1018.99 1019.15 1019.37 1019.54 1019.59 1019.66 1019.71 1019.72 1019.77 1019.75 1019.81 1019.78 1019.73 1019.70 1019.56 1019.37 1019.35 1019.23 1019.04 1018.94 1018.85 1018.77 1018.77 1018.71 1018.62 1018.56 1018.45 1018.34 1018.24 1018.19 1017.77 1017.25 1017.11 1017.10 1017.08 1017.39 1017.51 1017.66 1017.78 1017.88
1017.75 1018.16 1018.75 1019.06 1019.28 1019.40 1019.55 1019.66 1019.74 1019.79 1019.83 1019.79 1019.81 1019.80 1019.75 1019.66 1019.51 1019.45 1019.35 1019.22 1019.24 1019.06 1018.84 1018.69 1018.63 1018.55 1018.51 1018.41 1018.34 1018.26 1018.25 1018.18 1017.95 1017.20 1017.22 1017.12 1017.20 1017.31 1017.28 1017.41 1017.58 1017.66 1017.86
1017.84 1018.16 1018.55 1019.13 1019.38 1019.41 1019.49 1019.69 1019.78 1019.82 1019.85 1019.75 1019.66 1019.71 1019.69 1019.60 1019.51 1019.37 1019.31 1019.12 1018.97 1018.99 1018.80 1018.68 1018.54 1018.40 1018.31 1018.18 1018.14 1018.15 1018.06 1017.94 1017.50 1016.91 1017.03 1017.13 1016.92 1017.43 1017.35 1017.24 1017.34 1017.54 1017.68
1017.58 1018.17 1018.54 1018.95 1019.17 1019.39 1019.43 1019.54 1019.71 1019.83 1019.95 1019.96 1019.78 1019.64 1019.54 1019.44 1019.38 1019.34 1019.29 1019.13 1018.91 1018.96 1018.84 1018.65 1018.46 1018.28 1018.13 1018.02 1017.98 1017.87 1017.86 1017.79 1017.24 1016.94 1016.92 1016.79 1017.11 1017.36 1017.24 1017.26 1017.28 1017.28 1017.38
1017.72 1018.03 1018.34 1018.51 1019.00 1019.41 1019.41 1019.53 1019.61 1019.74 1019.81 1019.87 1019.84 1019.68 1019.70 1019.56 1019.32 1019.39 1019.25 1019.09 1018.87 1018.91 1018.89 1018.62 1018.47 1018.34 1018.20 1018.05 1017.87 1017.80 1017.75 1017.60 1016.87 1016.77 1016.81 1016.65 1016.99 1017.30 1017.14 1017.03 1016.92 1017.02 1017.11
1017.63 1017.77 1018.09 1018.51 1018.57 1018.88 1019.01 1019.38 1019.53 1019.62 1019.74 1019.73 1019.72 1019.68 1019.73 1019.61 1019.45 1019.45 1019.25 1019.08 1019.10 1018.89 1018.94 1018.75 1018.55 1018.44 1018.38 1018.23 1018.12 1018.03 1017.88 1017.57 1016.80 1016.73 1016.71 1016.82 1017.26 1017.10 1016.86 1016.66 1016.28 1016.46 1016.67
1017.96 1018.17 1018.39 1018.63 1018.78 1019.02 1019.03 1019.23 1019.54 1019.59 1019.75 1019.64 1019.49 1019.65 1019.60 1019.43 1019.53 1019.42 1019.64 1019.53 1019.32 1019.01 1018.83 1018.71 1018.52 1018.43 1018.30 1018.14 1018.05 1018.00 1017.77 1017.22 1017.06 1016.96 1016.71 1017.09 1017.18 1016.98 1016.72 1016.47 1016.23 1016.04 1015.96
1017.84 1018.29 1018.71 1019.03 1019.19 1019.26 1019.13 1019.19 1019.19 1019.26 1019.31 1019.41 1019.36 1019.52 1019.50 1019.62 1019.74 1019.66 1019.67 1019.77 1019.59 1019.31 1018.97 1018.69 1018.41 1018.25 1018.07 1017.54 1017.44 1017.74 1017.38 1017.29 1016.97 1016.90 1016.64 1017.14 1017.00 1016.81 1016.57 1016.34 1016.17 1015.97 1015.96
1018.01 1018.44 1018.89 1019.10 1019.31 1019.34 1019.22 1019.18 1019.15 1019.20 1019.16 1019.36 1019.60 1019.65 1019.75 1019.66 1019.59 1019.48 1019.50 1019.41 1019.42 1019.19 1018.79 1018.54 1018.26 1017.86 1017.61 1017.42 1017.34 1017.41 1017.33 1017.21 1016.87 1016.80 1016.58 1016.97 1016.89 1016.67 1016.44 1016.24 1015.97 1015.87 1015.91
1018.23 1018.48 1018.88 1019.09 1019.21 1019.25 1019.19 1019.10 1019.10 1019.14 1019.31 1019.47 1019.79 1019.84 1019.78 1019.56 1019.66 1019.64 1019.51 1019.49 1019.35 1019.06 1018.94 1018.66 1018.28 1018.15 1017.91 1017.76 1017.42 1017.18 1017.02 1016.91 1016.69 1016.50 1016.36 1016.78 1016.60 1016.46 1016.28 1016.03 1015.88 1015.71 1015.60
1018.17 1018.37 1018.74 1019.16 1019.37 1019.65 1019.47 1019.41 1019.35 1019.55 1019.53 1019.80 1019.89 1019.92 1019.76 1019.67 1019.67 1019.63 1019.66 1019.51 1019.37 1019.18 1018.83 1018.52 1018.28 1018.07 1017.88 1017.53 1017.30 1017.04 1016.68 1016.66 1016.63 1016.47 1016.31 1016.52 1016.49 1016.25 1016.03 1015.96 1015.75 1015.50 1015.33
1018.27 1018.57 1019.01 1019.22 1019.35 1019.49 1019.53 1019.63 1019.68 1019.82 1019.86 1019.93 1019.96 1019.97 1019.92 1019.72 1019.83 1019.71 1019.57 1019.48 1019.33 1019.27 1018.98 1018.62 1018.22 1017.95 1017.55 1017.40 1017.12 1017.09 1016.98 1016.72 1016.53 1016.31 1015.98 1015.85 1016.01 1016.15 1015.69 1015.60 1015.58 1015.39 1015.08
1018.43 1018.84 1019.23 1019.45 1019.45 1019.51 1019.63 1019.77 1019.75 1019.63 1019.67 1019.79 1019.77 1019.83 1019.81 1019.85 1020.03 1019.96 1019.71 1019.63 1019.54 1019.37 1019.00 1018.57 1018.13 1017.82 1017.46 1017.06 1016.95 1016.73 1016.65 1016.47 1016.25 1016.31 1016.22 1015.69 1015.36 1015.28 1015.36 1015.18 1015.06 1015.01 1014.90
1018.41 1018.76 1019.11 1019.10 1019.32 1019.67 1019.84 1019.79 1019.79 1019.90 1019.82 1019.79 1019.65 1019.79 1020.04 1020.10 1020.19 1020.01 1019.74 1019.67 1019.64 1019.26 1018.87 1018.55 1018.13 1017.68 1017.27 1016.95 1016.67 1016.44 1016.31 1016.30 1016.18 1016.12 1015.83 1015.62 1015.24 1014.83 1014.55 1014.67 1014.64 1014.60 1014.61
1018.58 1018.76 1018.99 1019.33 1019.61 1019.66 1019.78 1019.84 1020.07 1020.37 1020.22 1020.29 1020.10 1020.05 1020.19 1020.18 1020.15 1020.20 1020.02 1019.95 1019.90 1019.36 1018.98 1018.69 1018.22 1017.90 1017.35 1016.89 1016.43 1016.11 1016.03 1015.91 1015.78 1015.51 1015.59 1015.33 1015.07 1014.82 1014.14 1014.06 1014.25 1014.12 1014.26
1018.59 1018.76 1019.04 1019.33 1019.56 1019.73 1019.75 1020.19 1020.30 1020.29 1020.30 1020.32 1019.96 1020.25 1020.57 1020.38 1020.42 1020.39 1020.12 1020.19 1019.97 1019.49 1019.09 1018.83 1018.62 1018.05 1017.59 1016.97 1016.34 1015.74 1015.64 1015.64 1015.54 1015.32 1015.12 1014.90 1014.55 1014.33 1013.94 1013.80 1013.51 1013.44 1013.84
1018.56 1018.72 1019.00 1019.28 1019.53 1019.71 1019.74 1019.84 1020.11 1020.15 1020.10 1020.21 1020.19 1020.46 1020.43 1020.29 1020.22 1020.26 1020.02 1020.05 1019.92 1019.61 1019.42 1019.06 1018.49 1017.87 1017.16 1016.79 1016.48 1015.64 1015.40 1015.46 1015.28 1014.95 1014.82 1014.58 1014.20 1014.09 1013.65 1013.24 1013.32 1013.42 1013.41
1018.45 1018.65 1018.90 1019.05 1019.30 1019.51 1019.50 1019.71 1019.96 1020.01 1020.14 1020.13 1020.11 1020.12 1020.17 1020.07 1019.90 1019.80 1019.93 1019.67 1019.61 1019.41 1019.25 1019.02 1018.65 1018.03 1017.33 1017.02 1016.60 1015.93 1015.22 1014.65 1014.45 1014.74 1014.73 1014.47 1014.21 1013.84 1013.30 1013.26 1013.47 1013.48 1013.51
1018.19 1018.44 1018.71 1019.00 1019.17 1019.42 1019.72 1020.00 1020.32 1020.07 1019.94 1019.61 1019.64 1019.71 1019.77 1019.83 1019.81 1019.81 1019.78 1019.69 1019.49 1019.23 1018.72 1018.74 1018.48 1018.09 1017.33 1016.80 1016.88 1016.43 1015.56 1014.75 1014.66 1014.44 1014.52 1014.60 1014.67 1014.06 1013.64 1013.54 1013.70 1013.66 1013.74
1017.87 1018.18 1018.41 1018.65 1018.91 1019.27 1019.77 1019.90 1019.95 1019.79 1019.60 1019.60 1019.81 1019.73 1019.55 1019.73 1019.76 1019.86 1019.83 1019.57 1019.27 1018.82 1018.63 1018.55 1018.24 1018.11 1017.78 1017.20 1017.00 1016.75 1016.75 1016.67 1015.71 1014.63 1014.28 1014.40 1014.89 1014.78 1014.59 1014.48 1014.15 1013.75 1013.68
1017.44 1017.60 1018.07 1018.60 1019.17 1019.55 1019.90 1019.71 1019.72 1019.75 1019.74 1019.81 1019.73 1019.66 1019.56 1019.54 1019.61 1019.44 1019.25 1019.20 1018.93 1018.53 1018.39 1018.34 1018.09 1017.84 1017.58 1017.35 1017.19 1017.12 1016.86 1016.65 1016.53 1016.12 1014.66 1014.29 1014.42 1015.08 1015.01 1014.88 1014.54 1014.25 1014.11
1017.27 1017.67 1018.26 1018.73 1019.18 1019.67 1019.61 1019.67 1019.88 1019.88 1019.83 1019.62 1019.44 1019.43 1019.32 1019.41 1019.28 1019.25 1019.10 1018.86 1018.57 1018.53 1018.34 1018.11 1017.79 1017.51 1017.34 1017.43 1017.37 1017.18 1017.05 1016.91 1016.38 1016.35 1015.69 1015.21 1014.83 1014.66 1015.19 1014.90 1014.67 1014.35 1014.31
Wind_Speed
8 10 10 10 9 9 9 10 10 9 10 10 11 10 10 10 10 10 9 9 9 9 8 8 8 8 7 7 7 7 7 6 6 6 7 6 6 5 5 5 2 6 6
11 11 12 10 10 10 8 8 8 8 8 9 9 9 8 8 8 7 7 7 7 7 7 7 7 6 6 6 6 6 6 7 6 6 4 2 3 3 3 3 2 7 4
14 12 12 10 10 9 8 8 7 7 7 7 7 7 6 6 6 5 4 5 5 5 6 6 6 7 7 7 6 6 6 6 6 6 5 4 2 3 3 3 2 2 3
13 11 11 11 10 9 7 7 6 6 6 6 5 5 5 4 4 4 4 4 5 5 6 7 7 7 7 7 6 6 7 7 7 7 5 4 4 3 6 6 5 5 4
11 10 8 9 8 8 6 5 4 5 5 4 4 4 3 3 3 3 2 3 3 4 5 5 6 6 7 7 7 6 6 6 8 8 6 5 5 2 10 9 8 7 6
10 9 9 8 7 7 5 4 3 2 2 2 3 3 3 3 3 4 5 5 6 5 4 5 6 7 8 7 7 7 7 7 7 6 5 4 7 5 9 11 10 8 8
10 9 9 7 6 6 5 3 1 0 0 1 2 3 5 6 6 5 5 4 5 6 5 6 6 7 8 8 8 7 7 6 9 6 6 6 6 6 8 13 13 12 11
11 9 8 9 7 6 5 3 2 2 3 4 4 4 6 6 7 7 5 4 4 4 4 5 6 7 7 6 7 7 6 5 7 6 7 6 2 7 8 10 14 15 15
9 10 9 8 7 6 4 3 3 3 2 2 4 6 6 7 6 5 2 3 5 5 3 4 5 6 7 7 7 7 7 6 8 5 7 5 3 8 11 12 15 17 17
9 9 9 8 9 8 7 6 5 3 3 1 3 5 5 5 7 7 4 4 4 4 3 4 4 5 5 7 7 7 6 3 7 5 4 4 9 12 12 13 14 17 18
7 7 7 7 7 6 6 5 5 4 2 1 1 4 1 3 6 6 8 10 7 2 2 1 2 2 1 4 5 5 4 4 5 4 4 6 9 11 13 13 13 14 21
9 7 5 4 4 5 4 5 5 4 2 1 1 3 2 4 4 6 6 9 10 7 3 3 3 3 5 5 4 2 3 4 4 4 3 6 9 11 12 13 13 12 11
6 5 6 5 4 5 4 2 2 2 2 1 3 3 2 3 3 3 4 4 5 4 5 5 5 5 7 6 4 3 3 5 4 4 4 6 8 11 12 12 12 12 10
5 4 5 6 5 5 4 4 3 3 2 1 2 2 3 3 3 4 4 5 4 4 6 6 5 5 6 5 5 5 6 5 5 4 5 5 6 9 12 14 12 13 12
6 5 6 5 3 3 4 2 2 1 2 3 2 5 3 3 4 4 4 4 5 5 6 7 6 6 7 7 7 7 7 6 6 5 4 7 9 8 9 12 15 14 11
4 2 3 6 4 4 4 4 4 3 4 3 3 4 5 4 3 3 3 4 5 5 6 6 7 7 7 6 7 7 8 7 8 6 6 6 6 11 7 11 14 15 13
4 4 4 6 5 5 6 4 3 3 4 4 4 5 5 4 3 4 4 4 5 6 9 7 8 6 7 6 8 7 7 8 7 7 8 7 8 8 9 11 13 14 14
6 6 6 4 5 5 4 3 2 3 3 3 3 3 3 3 3 4 5 6 7 7 8 8 9 9 9 8 8 8 8 7 8 8 8 8 9 10 9 13 12 13 10
5 6 6 5 4 4 4 3 3 2 2 1 2 1 2 3 5 5 5 6 7 8 8 8 9 9 10 10 10 10 9 8 8 7 10 12 13 12 10 12 14 10 9
5 6 5 5 5 4 4 3 2 0 1 3 2 1 2 1 3 4 4 6 7 8 9 9 11 10 10 10 11 12 10 9 7 8 10 10 11 12 12 11 8 7 7
4 5 6 7 7 6 4 4 4 4 4 4 3 3 2 3 4 4 5 7 8 8 9 11 11 11 9 6 8 8 7 7 8 10 7 7 7 6 10 8 5 4 5
4 5 7 8 8 8 5 2 3 2 2 2 1 2 2 3 4 5 6 8 8 8 9 10 10 9 9 7 7 7 8 7 7 4 6 6 6 6 5 4 2 2 2
5 4 6 7 9 6 4 1 2 4 3 2 2 3 2 5 5 6 8 8 8 8 9 10 11 12 10 8 7 6 6 8 7 4 4 3 7 6 4 3 5 4 4
6 3 6 7 7 4 2 2 3 4 5 4 5 5 5 5 7 7 8 9 9 9 10 11 8 8 6 7 4 5 5 5 5 6 3 3 3 4 7 4 4 4 5
5 6 5 4 2 1 3 2 4 5 4 5 5 6 6 6 7 8 10 12 11 9 10 10 9 8 5 5 4 2 2 4 5 6 9 5 1 3 3 3 4 2 4
6 6 4 4 3 3 3 3 4 5 6 6 7 7 7 7 8 11 12 11 10 8 8 8 8 8 5 3 3 4 5 4 3 4 6 8 7 4 2 2 2 2 3
Wind_Direction
159 141 139 142 135 123 115 111 109 103 99 93 88 84 80 76 70 63 59 59 58 54 49 49 47 47 47 46 41 34 36 35 26 26 31 59 71 78 72 74 78 86 94
161 155 142 149 150 135 126 119 115 110 106 102 98 94 88 84 78 71 65 53 43 42 39 37 35 30 26 25 22 20 12 13 10 8 3 62 103 97 95 82 70 79 104
139 151 154 160 156 146 140 132 124 120 109 100 93 90 89 83 81 70 57 53 37 25 16 12 11 8 6 2 360 356 353 352 349 345 344 317 299 183 183 165 161 149 143
146 152 158 162 160 154 148 143 136 117 102 94 93 83 73 64 60 54 28 18 13 11 3 356 353 349 344 341 340 339 336 334 331 329 287 318 308 195 223 206 196 190 189
151 153 155 162 158 160 156 150 133 122 105 103 80 62 47 32 17 1 357 347 354 360 352 344 338 327 322 321 318 314 312 318 317 287 304 302 299 315 241 222 207 205 205
150 157 153 164 168 160 160 155 147 105 95 70 36 13 2 358 350 339 342 349 339 334 334 333 326 317 308 303 298 294 300 303 290 295 298 303 280 350 257 224 229 222 210
156 165 161 166 175 170 160 165 171 204 301 356 6 359 353 343 338 333 327 338 349 330 327 330 324 314 306 298 291 294 296 296 288 288 290 291 302 326 294 226 220 220 216
162 159 168 169 177 181 170 173 219 271 317 335 348 1 355 341 335 329 321 334 359 350 341 342 339 339 339 322 306 302 297 290 271 286 278 281 315 302 295 266 231 218 215
163 168 175 179 175 186 176 199 226 239 280 330 352 0 352 353 3 351 10 27 22 17 18 35 35 18 21 20 21 17 16 19 307 302 286 274 43 297 297 282 252 231 221
180 185 183 182 181 191 183 195 215 225 242 303 1 16 8 30 21 33 6 52 28 49 74 64 26 22 39 42 28 21 13 305 336 322 303 301 299 298 301 323 252 236 226
195 201 196 195 192 200 198 183 210 211 252 304 30 38 58 24 7 352 7 356 332 156 138 82 8 353 81 76 40 29 338 354 350 339 316 357 310 307 301 312 330 265 224
200 197 196 217 221 216 219 203 188 194 224 292 8 26 17 13 341 338 337 342 342 333 304 271 211 211 240 319 318 255 333 334 338 338 325 330 326 325 320 315 315 319 241
199 200 195 191 200 222 227 200 203 216 212 145 55 38 13 334 337 333 328 323 318 305 289 292 267 253 288 304 293 281 274 284 309 309 337 325 329 328 325 321 311 304 279
216 213 187 192 199 219 234 232 229 227 200 103 83 26 10 339 337 339 319 318 303 306 296 283 283 284 272 277 276 266 262 275 291 289 301 286 302 325 326 322 314 306 278
215 217 195 182 189 247 230 204 155 150 131 102 66 54 37 14 18 354 354 330 323 319 306 296 286 282 275 264 264 263 262 269 271 277 282 293 303 310 328 318 307 307 294
201 189 160 167 154 152 125 118 112 116 116 107 101 87 75 54 38 12 355 345 334 328 320 310 302 291 274 266 266 269 280 279 275 273 278 280 289 296 309 316 302 294 295
158 128 123 144 152 138 124 134 132 142 142 155 133 105 89 68 59 5 343 327 331 327 317 309 299 286 273 261 262 264 270 272 274 289 292 286 286 265 281 292 294 289 278
177 160 156 160 142 134 127 138 143 160 163 139 109 89 84 73 28 343 331 332 340 325 320 311 303 292 284 278 277 278 284 274 277 277 279 290 287 285 281 265 282 280 269
190 173 178 166 161 137 142 159 177 173 83 357 114 130 34 7 10 338 327 333 333 325 318 315 309 302 286 277 274 269 270 271 274 287 290 287 280 274 273 270 274 255 260
177 181 186 175 157 167 155 168 189 214 304 247 196 217 252 298 334 322 326 325 323 319 315 322 312 302 291 287 282 279 280 274 274 290 289 285 278 274 265 260 254 239 258
175 193 197 188 181 185 187 213 229 233 226 245 231 247 278 345 352 337 322 319 318 314 320 314 307 306 306 301 279 259 262 255 284 301 290 299 271 289 267 246 237 250 258
184 196 198 208 199 210 219 220 288 271 254 302 306 331 323 322 334 310 311 317 313 309 314 321 308 301 292 286 292 295 278 274 281 303 293 294 311 296 255 162 220 258 317
225 216 215 218 220 224 242 258 282 248 226 275 349 328 332 323 323 317 314 312 302 294 305 315 311 298 290 284 270 284 283 283 325 290 307 305 342 337 310 291 27 351 328
263 253 237 232 229 200 138 275 324 322 314 342 315 318 323 336 329 320 311 311 309 302 299 301 301 289 273 274 309 256 250 282 300 294 284 303 360 3 355 359 340 354 347
267 257 260 253 239 221 319 354 322 306 314 318 308 319 322 315 317 318 319 316 310 302 304 300 294 287 256 264 262 306 265 259 253 267 288 301 317 29 3 328 319 342 335
267 265 265 248 259 334 338 340 314 312 315 316 332 318 319 318 323 321 315 307 302 297 290 291 291 283 271 270 266 244 255 270 283 246 276 282 292 308 324 297 323 2 10